TimeEST,TemperatureF,Dew PointF,Humidity,Sea Level PressureIn,VisibilityMPH,Wind Direction,Wind SpeedMPH,Gust SpeedMPH,PrecipitationIn,Events,Conditions,WindDirDegrees,DateUTC
12:53 AM,57.0,51.1,81,29.82,10.0,South,12.7,-,N/A,,Scattered Clouds,180,2013-11-17 05:53:00
1:23 AM,57.2,51.8,82,29.81,10.0,South,11.5,-,N/A,,Mostly Cloudy,180,2013-11-17 06:23:00
1:53 AM,57.0,52.0,83,29.81,10.0,South,12.7,-,0.00,,Overcast,180,2013-11-17 06:53:00
2:13 AM,57.2,51.8,82,29.80,10.0,South,12.7,-,0.00,Rain,Light Rain,180,2013-11-17 07:13:00
2:53 AM,57.0,53.1,87,29.78,10.0,South,17.3,-,0.00,,Mostly Cloudy,170,2013-11-17 07:53:00
3:53 AM,57.9,54.0,87,29.77,10.0,South,19.6,26.5,0.00,,Mostly Cloudy,190,2013-11-17 08:53:00
4:41 AM,60.8,55.4,82,29.73,10.0,South,16.1,32.2,0.02,,Mostly Cloudy,190,2013-11-17 09:41:00
4:53 AM,59.0,55.0,87,29.73,10.0,SSW,16.1,25.3,0.02,,Mostly Cloudy,200,2013-11-17 09:53:00
5:05 AM,59.0,55.4,88,29.73,10.0,SSW,15.0,21.9,N/A,,Scattered Clouds,200,2013-11-17 10:05:00
5:53 AM,57.9,54.0,87,29.73,10.0,SSW,12.7,19.6,N/A,,Scattered Clouds,210,2013-11-17 10:53:00
6:53 AM,57.9,53.1,84,29.73,10.0,South,15.0,-,0.00,Rain,Light Rain,190,2013-11-17 11:53:00
7:53 AM,57.9,54.0,87,29.73,10.0,South,18.4,23.0,0.02,Rain,Light Rain,180,2013-11-17 12:53:00
8:53 AM,59.0,54.0,83,29.72,10.0,South,15.0,23.0,0.00,,Overcast,180,2013-11-17 13:53:00
9:53 AM,62.1,55.9,80,29.70,10.0,South,19.6,24.2,N/A,,Mostly Cloudy,180,2013-11-17 14:53:00
10:53 AM,62.1,55.9,80,29.68,10.0,South,18.4,26.5,N/A,,Mostly Cloudy,190,2013-11-17 15:53:00
11:53 AM,64.9,57.0,75,29.62,10.0,South,27.6,38.0,0.00,,Scattered Clouds,180,2013-11-17 16:53:00
12:53 PM,64.9,57.0,75,29.57,10.0,South,27.6,39.1,N/A,,Mostly Cloudy,180,2013-11-17 17:53:00
1:53 PM,66.0,57.0,73,29.52,10.0,South,26.5,35.7,N/A,,Overcast,180,2013-11-17 18:53:00
2:26 PM,66.2,55.4,68,29.49,10.0,South,24.2,38.0,N/A,,Mostly Cloudy,180,2013-11-17 19:26:00
2:37 PM,66.2,55.4,68,29.48,10.0,South,23.0,36.8,N/A,,Overcast,180,2013-11-17 19:37:00
2:53 PM,66.0,55.9,70,29.46,10.0,South,27.6,35.7,N/A,,Overcast,190,2013-11-17 19:53:00
3:09 PM,66.2,57.2,73,29.45,10.0,South,25.3,35.7,N/A,,Mostly Cloudy,180,2013-11-17 20:09:00
3:53 PM,64.9,57.0,75,29.44,10.0,South,20.7,33.4,N/A,,Overcast,190,2013-11-17 20:53:00
4:53 PM,63.0,57.9,84,29.36,10.0,South,24.2,35.7,0.01,Rain,Light Rain,180,2013-11-17 21:53:00